Location: Cazarilh
(42.9578°N, 0.5819°E)
Time: 18:21:21
(UTC+00:00)

ALOS - Pass Details

Date: 11 December 2019
Orbit: 684 x 685 km, 97.8° (Epoch: 24 January)

Event Time Altitude Azimuth Distance (km) Brightness Sun altitude
Rises 05:16:14 0° 14° (NNE) 3,061 5.6 -21.5°
Reaches altitude 10° 05:18:30 10° 15° (NNE) 2,141 4.8 -21.1°
Maximum altitude 05:23:11 78° 101° (ESE) 706 2.4 -20.3°
Drops below altitude 10° 05:27:50 10° 189° (S) 2,123 4.8 -19.5°
Sets 05:30:04 0° 191° (S) 3,034 5.6 -19.1°
